SL-16 DEB

Satellite information

Favourite Embed

Satellite Type and Status

DEBRISIN ORBIT

Key statistics

Satellite SL-16 DEB at a glance.

Uptime

12042

Days in orbit

Revolutions

≈ 14.9

Per day

Orbit

LEO

Low Earth Orbit

Inclination

70.8

Latest

Satellite identification and parameters

Extended collection of information and parameters for SL-16 DEB.

Object identification

Identified? True

Debris? True

Object name: SL-16 DEB

International designator: 1992-093L

Object number (NORAD): 22296

Object ID (CCSDS): 22296

Country: COMMONWEALTH OF INDEPENDENT STATES (CIS)

Current information (Y/N): Y

RCS size: SMALL

Orbital parameters

Period: 96.914 minutes

Inclination: 70.827 deg

SMA: 6989.061 km

Apoapsis: 638.166 km

Periapsis: 583.686 km

RAAN: 311.9591 deg

Eccentricy: 0.00389752

Argument of periapsis: 279.9578 deg

Mean anomaly: 254.498 deg

Mean motion: 14.8584857 rev/day

Mean motion (dot): 0.00033836 rev/day2

B* drag term: 0.0038182457 1/REarth

Two-line elements (TLE)

Creation date: Dec. 14, 2025, 3:07 a.m.

Reference frame: TEME

Reference center: EARTH

Epoch: Dec. 13, 2025, 3:52 p.m. UTC

TLE line 0: 0 SL-16 DEB

TLE line 1: 1 22296U 92093L 25347.66179630 .00033836 00000-0 38182-2 0 9990

TLE line 2: 2 22296 70.8270 311.9591 0038975 279.9578 254.4980 14.85848570710218

Live tracking on map

Real-time ground track for satellite SL-16 DEB.

In-orbit conjunctions

A list of the most updated potential collisions computed for object SL-16 DEB.

Target Orbit TCA Probability of collision Miss distance Type
CZ-2C R/B LEO 2025-02-24 20:04:58 0.0001677084 412.0 (m) ROCKET BODY
CZ-6A DEB LEO 2024-11-21 00:26:36 0.0001277196 324.0 (m) DEBRIS
DELTA 1 DEB SSO 2024-11-20 21:17:39 0.0001280001 11.0 (m) DEBRIS

Associated space launch

Second generation ELING satellite

SL-16 DEB was lifted into orbit during the mission ‘Zenit-2 | Tselina-2 12’, on board a Zenit-2 space rocket.

The launch took place on Dec. 25, 1992, 5:56 a.m. from 45/1.

For more information about the launch, click the button.

Launch to space Zenit-2 | Tselina-2 12
Zenit-2 | Tselina-2 12

Agency: N/A

Status: Launch Successful

Launch date: Dec. 25, 1992, 5:56 a.m. UTC

Rocket: Zenit-2

Launch pad: 45/1

Location: Baikonur Cosmodrome, Republic of Kazakhstan

...

Latest news about this satellite

There are no fresh news available about this satellite. Check back as we update our databases every day.


Newsletter sign-up

Weekly statistics, charts and insights to help you stay on top of the space industry.